This is the latest recevied weather packets stored in our database for station/object G6FCI. If no packets are shown the sender has not sent any weather packets the latest 10 day(s).
| Time | Temp. | Humidity | Pressure | Rain* | Wind** | Luminosity | Snow |
|---|---|---|---|---|---|---|---|
| 1777766943 | 11.67° C | 75% | 1011.5 hPa | 2.54 mm | - | - | - |
| 1777764423 | 11.67° C | 74% | 1011.7 hPa | 1.52 mm | - | - | - |
| 1777763883 | 12.22° C | 73% | 1011.7 hPa | 1.52 mm | - | - | - |
| 1777760283 | 12.22° C | 75% | 1011.9 hPa | 0.76 mm | - | - | - |
| 1777758843 | 12.78° C | 76% | 1012.1 hPa | 0.51 mm | - | - | - |
| 1777758303 | 12.78° C | 77% | 1012.1 hPa | 0.51 mm | - | - | - |
| 1777757223 | 12.78° C | 78% | 1012.1 hPa | 0.51 mm | - | - | - |
| 1777756683 | 12.78° C | 78% | 1012.2 hPa | 0.25 mm | - | - | - |
| 1777756143 | 12.78° C | 78% | 1012.1 hPa | 0.25 mm | - | - | - |
| 1777755603 | 13.33° C | 78% | 1012.2 hPa | 0.25 mm | - | - | - |
| 1777752024 | 13.33° C | 78% | 1012.4 hPa | 0 mm | - | - | - |
| 1777749504 | 13.89° C | 76% | 1012.1 hPa | 0 mm | - | - | - |
| 1777748403 | 13.89° C | 78% | 1012.2 hPa | 0 mm | - | - | - |
| 1777741743 | 15° C | 75% | 1012.8 hPa | 0 mm | - | - | - |
| 1777740843 | 15° C | 77% | 1012.9 hPa | 0 mm | - | - | - |
| 1777738683 | 16.11° C | 77% | 1013.3 hPa | 0 mm | - | - | - |
| 1777737243 | 15.56° C | 77% | 1013.5 hPa | 0 mm | - | - | - |
| 1777736703 | 16.11° C | 77% | 1013.5 hPa | 0 mm | - | - | - |
| 1777736163 | 16.11° C | 76% | 1013.5 hPa | 0 mm | - | - | - |
| 1777730043 | 16.67° C | 74% | 1014.8 hPa | 0 mm | - | - | - |
| 1777729503 | 16.11° C | 74% | 1014.8 hPa | 0 mm | - | - | - |
| 1777726443 | 15.56° C | 75% | 1015.3 hPa | 0 mm | - | - | - |
| 1777721223 | 16.67° C | 72% | 1016.1 hPa | 0 mm | - | - | - |
| 1777720683 | 16.67° C | 72% | 1016.1 hPa | 0 mm | - | - | - |
| 1777718163 | 16.11° C | 70% | 1016.2 hPa | 0 mm | - | - | - |
* Rain latest hour (hover to see other rain measurements)
** Current wind speed in m/s (hover to see current wind gust speed)